TimeCDT,TemperatureF,Dew PointF,Humidity,Sea Level PressureIn,VisibilityMPH,Wind Direction,Wind SpeedMPH,Gust SpeedMPH,PrecipitationIn,Events,Conditions,WindDirDegrees,DateUTC
12:53 AM,57.0,55.9,96,29.97,10.0,Calm,Calm,-,N/A,,Clear,0,2012-10-03 05:53:00
1:53 AM,59.0,57.0,93,29.97,10.0,Calm,Calm,-,N/A,,Clear,0,2012-10-03 06:53:00
2:53 AM,59.0,55.0,87,29.97,10.0,Calm,Calm,-,N/A,,Clear,0,2012-10-03 07:53:00
3:53 AM,61.0,55.0,81,29.97,10.0,Calm,Calm,-,N/A,,Clear,0,2012-10-03 08:53:00
4:53 AM,57.9,55.0,90,29.97,10.0,Calm,Calm,-,N/A,,Clear,0,2012-10-03 09:53:00
5:53 AM,57.9,55.9,93,29.99,10.0,Calm,Calm,-,N/A,,Clear,0,2012-10-03 10:53:00
6:53 AM,55.9,55.9,100,30.01,8.0,Calm,Calm,-,N/A,,Clear,0,2012-10-03 11:53:00
7:53 AM,57.9,55.9,93,30.02,9.0,Calm,Calm,-,N/A,,Clear,0,2012-10-03 12:53:00
8:53 AM,63.0,57.0,81,30.03,10.0,Calm,Calm,-,N/A,,Clear,0,2012-10-03 13:53:00
9:53 AM,68.0,57.9,70,30.05,10.0,SE,5.8,-,N/A,,Clear,140,2012-10-03 14:53:00
10:53 AM,71.1,59.0,66,30.06,10.0,SSE,3.5,-,N/A,,Clear,150,2012-10-03 15:53:00
11:53 AM,73.9,57.9,57,30.05,10.0,SE,8.1,-,N/A,,Clear,130,2012-10-03 16:53:00
12:53 PM,75.9,57.0,52,30.04,10.0,Variable,3.5,-,N/A,,Clear,0,2012-10-03 17:53:00
1:53 PM,78.1,57.0,48,30.02,10.0,Calm,Calm,-,N/A,,Clear,0,2012-10-03 18:53:00
2:53 PM,78.1,54.0,43,30.00,10.0,Calm,Calm,-,N/A,,Clear,0,2012-10-03 19:53:00
3:53 PM,79.0,55.9,45,30.00,10.0,SSE,5.8,-,N/A,,Clear,150,2012-10-03 20:53:00
4:53 PM,79.0,55.9,45,29.99,10.0,ESE,6.9,-,N/A,,Clear,120,2012-10-03 21:53:00
5:53 PM,77.0,55.9,48,30.00,10.0,SE,6.9,-,N/A,,Clear,140,2012-10-03 22:53:00
6:53 PM,73.0,57.0,57,30.01,10.0,SE,4.6,-,N/A,,Clear,130,2012-10-03 23:53:00
7:53 PM,69.1,57.9,68,30.03,10.0,SE,3.5,-,N/A,,Clear,130,2012-10-04 00:53:00
8:53 PM,64.0,57.9,80,30.04,10.0,ESE,4.6,-,N/A,,Clear,120,2012-10-04 01:53:00
9:53 PM,64.9,57.9,78,30.06,10.0,Calm,Calm,-,N/A,,Clear,0,2012-10-04 02:53:00
10:53 PM,62.1,57.9,86,30.07,10.0,Calm,Calm,-,N/A,,Clear,0,2012-10-04 03:53:00
11:53 PM,61.0,57.9,90,30.08,10.0,Calm,Calm,-,N/A,,Clear,0,2012-10-04 04:53:00